Date String (YYYY-MM-DD hh:mm:ss) UTC,Instrument flags,Ambient pressure (hPa),Sample flow (lpm),Bypass flow (lpm),Sample temperature (°C),Ambient temperature (°C),ASC tube jacket temperature (°C),LED temperature (°C),Box temperature (°C),Sample RH (%),Span deviation,Mass concentration (μg/m³),Mass concentration (μg/m³),Mass concentration (μg/m³)
DateTimeUTC,F1_M11,P_M11,Q1_M11,Q2_M11,T1_M11,T2_M11,T3_M11,T4_M11,T5_M11,U1_M11,ZSPAN_M11,X0_M11,X2_M11,X1_M11
2022-02-28 04:00:00,,0831.6,4.98,0.00,26.3,25.6,00.0,35.4,28.1,07.1,0005.2,0010.80,0006.72,0006.12
2022-02-28 04:01:00,,0831.7,5.01,0.00,26.3,25.6,00.0,35.4,28.0,07.4,0004.9,0010.66,0006.68,0006.08
2022-02-28 04:02:00,,0831.6,5.01,0.00,26.3,25.5,00.0,35.4,28.0,07.1,0004.3,0010.43,0006.63,0006.02
2022-02-28 04:03:00,,0831.7,4.99,0.00,26.3,25.5,00.0,35.4,28.0,06.9,0005.2,0010.35,0006.58,0005.96
2022-02-28 04:04:00,,0831.6,5.00,0.00,26.3,25.5,00.0,35.4,28.0,06.9,0005.6,0010.24,0006.52,0005.93
2022-02-28 04:05:00,,0831.7,5.01,0.00,26.2,25.5,00.0,35.4,28.0,06.9,0003.3,0010.50,0006.46,0005.90
2022-02-28 04:06:00,,0831.7,5.01,0.00,26.2,25.4,00.0,35.4,28.0,06.9,0000.0,0010.38,0006.40,0005.85
2022-02-28 04:07:00,,0831.6,4.99,0.00,26.2,25.4,00.0,35.3,28.0,06.9,0000.0,0010.24,0006.32,0005.82
2022-02-28 04:08:00,,0831.6,5.00,0.00,26.2,25.4,00.0,35.3,27.9,06.9,0000.0,0009.81,0006.22,0005.76
2022-02-28 04:09:00,,0831.6,5.00,0.00,26.2,25.4,00.0,35.3,27.9,06.7,0000.0,0009.40,0006.12,0005.72
2022-02-28 04:10:00,,0831.6,5.00,0.00,26.2,25.5,00.0,35.3,28.0,06.6,0000.0,0009.27,0006.05,0005.66
2022-02-28 04:11:00,,0831.6,4.98,0.00,26.2,25.5,00.0,35.3,28.0,06.6,0000.0,0009.13,0005.99,0005.62
2022-02-28 04:12:00,,0831.5,5.01,0.00,26.2,25.5,00.0,35.3,28.0,06.6,0000.0,0009.38,0005.92,0005.57
2022-02-28 04:13:00,,0831.5,5.00,0.00,26.2,25.5,00.0,35.3,28.0,06.5,0000.0,0009.69,0005.84,0005.50
2022-02-28 04:14:00,,0831.5,4.99,0.00,26.2,25.5,00.0,35.3,28.0,06.5,0000.0,0009.52,0005.74,0005.45
2022-02-28 04:15:00,,0831.6,5.00,0.00,26.2,25.5,00.0,35.3,28.0,06.4,0000.0,0009.46,0005.70,0005.41
2022-02-28 04:16:00,,0831.5,5.01,0.00,26.2,25.5,00.0,35.3,28.0,06.5,0000.0,0009.53,0005.68,0005.37
2022-02-28 04:17:00,,0831.5,4.99,0.00,26.2,25.5,00.0,35.3,28.0,06.4,0000.0,0009.83,0005.65,0005.34
2022-02-28 04:18:00,,0831.6,5.01,0.00,26.2,25.5,00.0,35.3,28.1,06.3,0000.0,0009.81,0005.62,0005.32
2022-02-28 04:19:00,,0831.6,4.99,0.00,26.2,25.5,00.0,35.3,28.1,06.4,0000.0,0009.81,0005.63,0005.30
2022-02-28 04:20:00,,0831.5,4.99,0.00,26.2,25.5,00.0,35.3,28.1,06.4,0000.8,0010.06,0005.63,0005.28
2022-02-28 04:21:00,,0831.6,4.99,0.00,26.3,25.6,00.0,35.3,28.1,06.4,0000.0,0010.36,0005.65,0005.28
2022-02-28 04:22:00,,0831.6,5.01,0.00,26.3,25.5,00.0,35.3,28.1,06.4,0001.6,0010.39,0005.65,0005.28
2022-02-28 04:23:00,,0831.5,5.00,0.00,26.3,25.5,00.0,35.3,28.1,06.4,0004.6,0010.08,0005.65,0005.28
2022-02-28 04:24:00,,0831.6,5.00,0.00,26.3,25.5,00.0,35.3,28.1,06.4,0004.5,0009.75,0005.66,0005.27
2022-02-28 04:25:00,,0831.6,4.99,0.00,26.3,25.5,00.0,35.3,28.1,06.4,0003.7,0009.85,0005.67,0005.27
2022-02-28 04:26:00,,0831.6,5.00,0.00,26.3,25.5,00.0,35.3,28.1,06.3,0003.7,0009.85,0005.68,0005.28
2022-02-28 04:27:00,,0831.6,5.01,0.00,26.3,25.5,00.0,35.3,28.1,06.2,0004.5,0009.39,0005.64,0005.27
2022-02-28 04:28:00,,0831.6,5.00,0.00,26.3,25.5,00.0,35.3,28.1,06.2,0004.3,0008.97,0005.64,0005.27
2022-02-28 04:29:00,,0831.6,4.99,0.00,26.3,25.5,00.0,35.3,28.1,06.3,0004.6,0008.94,0005.63,0005.26
2022-02-28 04:30:00,,0831.6,5.02,0.00,26.3,25.5,00.0,35.3,28.1,06.2,0003.2,0008.90,0005.60,0005.25
2022-02-28 04:31:00,,0831.6,5.01,0.00,26.3,25.4,00.0,35.3,28.1,06.2,0005.2,0008.68,0005.57,0005.24
2022-02-28 04:32:00,,0831.6,5.00,0.00,26.3,25.5,00.0,35.3,28.1,06.1,0005.7,0008.46,0005.55,0005.21
2022-02-28 04:33:00,,0831.6,4.99,0.00,26.3,25.5,00.0,35.3,28.1,06.0,0002.1,0008.83,0005.54,0005.17
2022-02-28 04:34:00,,0831.6,5.00,0.00,26.3,25.4,00.0,35.3,28.1,05.9,0000.0,0009.12,0005.50,0005.11
2022-02-28 04:35:00,,0831.6,5.01,0.00,26.3,25.5,00.0,35.3,28.1,05.9,0002.3,0009.40,0005.40,0005.05
2022-02-28 04:36:00,,0831.6,5.01,0.00,26.3,25.5,00.0,35.3,28.1,05.8,0000.0,0009.51,0005.33,0005.00
2022-02-28 04:37:00,,0831.6,4.99,0.00,26.3,25.5,00.0,35.3,28.1,05.9,0000.0,0009.49,0005.29,0004.96
2022-02-28 04:38:00,,0831.6,5.00,0.00,26.3,25.5,00.0,35.3,28.2,06.0,0000.0,0009.52,0005.29,0004.93
2022-02-28 04:39:00,,0831.6,5.01,0.00,26.3,25.5,00.0,35.3,28.1,06.0,0000.0,0009.55,0005.28,0004.91
2022-02-28 04:40:00,,0831.6,5.00,0.00,26.3,25.5,00.0,35.3,28.2,05.9,0000.0,0009.58,0005.25,0004.87
2022-02-28 04:41:00,,0831.6,4.99,0.00,26.3,25.5,00.0,35.3,28.2,05.7,0000.0,0009.69,0005.23,0004.84
2022-02-28 04:42:00,,0831.6,5.01,0.00,26.3,25.5,00.0,35.3,28.1,05.6,0000.0,0009.59,0005.18,0004.80
2022-02-28 04:43:00,,0831.6,4.99,0.00,26.3,25.5,00.0,35.3,28.1,05.6,0000.0,0009.60,0005.15,0004.77
2022-02-28 04:44:00,,0831.6,5.01,0.00,26.3,25.4,00.0,35.3,28.1,05.7,0000.0,0009.24,0005.10,0004.75
2022-02-28 04:45:00,,0831.6,5.01,0.00,26.2,25.3,00.0,35.3,28.0,05.7,0000.0,0008.84,0005.07,0004.74
2022-02-28 04:46:00,,0831.6,5.00,0.00,26.2,25.3,00.0,35.3,28.0,05.7,0000.0,0008.46,0005.11,0004.75
2022-02-28 04:47:00,,0831.6,5.00,0.00,26.2,25.3,00.0,35.2,28.0,05.7,0000.0,0008.29,0005.14,0004.76
2022-02-28 04:48:00,,0831.6,4.99,0.00,26.2,25.3,00.0,35.2,28.0,05.7,0000.0,0008.30,0005.16,0004.75
2022-02-28 04:49:00,,0831.7,4.99,0.00,26.2,25.3,00.0,35.2,28.0,05.8,0000.0,0008.26,0005.15,0004.76
2022-02-28 04:50:00,,0831.7,5.01,0.00,26.2,25.3,00.0,35.2,28.0,05.8,0000.0,0008.19,0005.13,0004.77
2022-02-28 04:51:00,,0831.6,5.01,0.00,26.2,25.3,00.0,35.2,28.0,05.7,0000.0,0008.16,0005.12,0004.78
2022-02-28 04:52:00,,0831.6,4.98,0.00,26.2,25.3,00.0,35.2,28.0,05.6,0000.0,0007.99,0005.09,0004.78
2022-02-28 04:53:00,,0831.6,5.01,0.00,26.2,25.3,00.0,35.2,28.0,05.6,0000.0,0008.04,0005.09,0004.78
2022-02-28 04:54:00,,0831.7,5.02,0.00,26.2,25.3,00.0,35.2,28.0,05.6,0000.0,0008.00,0005.11,0004.80
2022-02-28 04:55:00,,0831.7,4.99,0.00,26.2,25.4,00.0,35.2,28.0,05.5,0000.0,0007.93,0005.11,0004.80
2022-02-28 04:56:00,,0831.6,5.01,0.00,26.2,25.4,00.0,35.2,28.0,05.5,0000.0,0008.02,0005.13,0004.80
2022-02-28 04:57:00,,0831.7,5.01,0.00,26.2,25.4,00.0,35.2,28.0,05.5,0000.0,0008.21,0005.14,0004.81
2022-02-28 04:58:00,,0831.6,4.99,0.00,26.2,25.4,00.0,35.2,28.0,05.6,0000.0,0008.18,0005.14,0004.82
2022-02-28 04:59:00,,0831.7,5.01,0.00,26.2,25.4,00.0,35.2,28.1,05.7,0000.0,0008.22,0005.13,0004.83
